Regional Weather Roundup
Issued by NWS

Home | Current Version | Previous Version | Graphics & Text | Print | Product List | Glossary On
Versions: 1 2 3 4 5 6 7 8 9 10 11 12 13 14 15 16 17 18 19 20 21 22 23 24 25 26 27 28 29 30 31 32 33 34 35 36 37 38 39 40 41 42 43 44 45 46 47 48 49 50
230
ASUS43 KBIS 230902
RWRND

NORTH DAKOTA REGIONAL WEATHER ROUNDUP
NATIONAL WEATHER SERVICE BISMARCK ND
400 AM CDT SUN APR 23 2017

NOTE: "FAIR" INDICATES FEW OR NO CLOUDS BELOW 12,000 FEET WITH NO
SIGNIFICANT WEATHER AND/OR OBSTRUCTIONS TO VISIBILITY.


NDZ001>003-009>011-017-231000-
NORTHWEST NORTH DAKOTA

CITY           SKY/WX    TMP DP  RH WIND       PRES   REMARKS
WILLISTON      CLOUDY    36  28  73 E16       30.09F
MINOT          FLURRIES  32  26  78 NE17      30.16F
MINOT AFB      CLOUDY    31  26  82 E20       30.15F WCI  18
$$

NDZ018>021-031>035-040>046-231000-
SOUTHWEST NORTH DAKOTA

CITY           SKY/WX    TMP DP  RH WIND       PRES   REMARKS
BISMARCK       CLOUDY    37  32  82 E18G26    30.11F
DICKINSON      CLOUDY    33  30  88 E22G29    29.99F
GARRISON         N/A     32  31  96 E16G26    30.11F
HETTINGER ARPT CLOUDY    37  35  92 E21G28    29.97F
$$

NDZ004>008-012>016-024-026-027-054-231000-
NORTHEAST NORTH DAKOTA

CITY           SKY/WX    TMP DP  RH WIND       PRES   REMARKS
GRAND FORKS    CLOUDY    32  22  66 N14       30.24S
GRND FRKS AFB  CLOUDY    30  18  61 NE16      30.23F WCI  18
DEVILS LAKE    CLOUDY    29  18  63 NE15      30.21F WCI  18
$$

NDZ022-023-025-028>030-036>039-047>053-231000-
SOUTHEAST NORTH DAKOTA

CITY           SKY/WX    TMP DP  RH WIND       PRES   REMARKS
FARGO          CLOUDY    35  32  88 N16       30.17S
JAMESTOWN      CLOUDY    32  24  72 NE16G22   30.16F
$$





USA.gov is the U.S. government's official web portal to all federal, state and local government web resources and services.